[TLELIST] Archives

 

[list_settings.list_name] Current TLEs

February 11th 2022 PST

HST 1 20580U 90037B 22042.09329851 .00002077 00000-0 11363-3 0 9994 2 20580 28.4699 285.7182 0002727 113.1538 40.5409 15.10024843547363 ISS (ZARYA) 1 25544U 98067A 22042.38875318 .00006604 00000-0 12485-3 0 9992 2 25544 51.6423 239.5768 0005805 121.6091 303.7954 15.49703035325672 CXO 1 25867U 99040B 22043.76058329 .00000613 00000-0 00000-0 0 9991 2 25867 48.8350 243.4332 8671672 229.9113 0.4273 0.37805587 11330 ____________________________________________________________________ These 2-Line ...Continue Reading

[list_settings.list_name] Current TLEs

February 10th 2022 PST

HST 1 20580U 90037B 22040.44357961 .00002072 00000-0 11334-3 0 9997 2 20580 28.4702 296.6401 0002739 96.5938 71.3172 15.10018751546846 ISS (ZARYA) 1 25544U 98067A 22041.31150612 .00005892 00000-0 11233-3 0 9995 2 25544 51.6421 244.9118 0005783 116.2142 55.3611 15.49686523325505 CXO 1 25867U 99040B 22043.75958697 .00000613 00000-0 00000-0 0 9997 2 25867 48.8351 243.4334 8671675 229.9113 0.2919 0.37805371 11321 ____________________________________________________________________ These 2-Line ...Continue Reading

[list_settings.list_name] Current TLEs

February 9th 2022 PST

HST 1 20580U 90037B 22039.89320439 .00001868 00000-0 10116-3 0 9993 2 20580 28.4703 300.2837 0002742 91.2925 318.8121 15.10015642546764 ISS (ZARYA) 1 25544U 98067A 22040.34438266 .00003437 00000-0 68960-4 0 9994 2 25544 51.6432 249.7021 0005970 115.6393 56.9318 15.49668513325355 CXO 1 25867U 99040B 22041.11738019 .00000455 00000-0 00000+0 0 9992 2 25867 48.9013 243.5872 8668437 229.8287 0.6549 0.37805117 22477 ____________________________________________________________________ These 2-Line ...Continue Reading

[list_settings.list_name] Current TLEs

February 8th 2022 PST

HST 1 20580U 90037B 22039.18053300 .00002048 00000-0 11192-3 0 9991 2 20580 28.4705 305.0019 0002737 84.0884 44.2118 15.10013800546927 ISS (ZARYA) 1 25544U 98067A 22039.31149870 .00006896 00000-0 12947-3 0 9994 2 25544 51.6418 254.8121 0006554 108.9790 57.5353 15.49819080325197 CXO 1 25867U 99040B 22041.11738019 .00000455 00000-0 00000+0 0 9992 2 25867 48.9013 243.5872 8668437 229.8287 0.6549 0.37805117 22477 ____________________________________________________________________ These 2-Line ...Continue Reading

[list_settings.list_name] Current TLEs

February 7th 2022 PST

HST 1 20580U 90037B 22037.84470222 .00002069 00000-0 11322-3 0 9996 2 20580 28.4707 313.8452 0002718 70.8437 341.4279 15.10008985546459 ISS (ZARYA) 1 25544U 98067A 22038.37836806 .00007168 00000-0 13432-3 0 9994 2 25544 51.6416 259.4336 0006553 105.8037 251.0375 15.49806680325044 CXO 1 25867U 99040B 22038.46936264 .00000355 00000-0 00000+0 0 9997 2 25867 48.9736 243.7437 8663825 229.7476 0.2179 0.37804103 22461 ____________________________________________________________________ These 2-Line ...Continue Reading

[list_settings.list_name] Current TLEs

February 6th 2022 PST

HST 1 20580U 90037B 22036.47531892 .00002219 00000-0 12223-3 0 9993 2 20580 28.4709 322.9106 0002692 57.0203 96.4914 15.10004688546243 ISS (ZARYA) 1 25544U 98067A 22037.24477815 .00006320 00000-0 11948-3 0 9999 2 25544 51.6412 265.0493 0006650 101.9515 46.0969 15.49786324324876 CXO 1 25867U 99040B 22035.82769404 .00000374 00000-0 00000+0 0 9995 2 25867 49.0287 243.8729 8657556 229.6935 0.6125 0.37805427 22456 ____________________________________________________________________ These 2-Line ...Continue Reading

[list_settings.list_name] Current TLEs

February 5th 2022 PST

HST 1 20580U 90037B 22035.55292865 .00001987 00000-0 10833-3 0 9991 2 20580 28.4710 329.0170 0002671 47.5269 121.9176 15.09999883546104 ISS (ZARYA) 1 25544U 98067A 22036.21227902 .00013010 00000-0 23729-3 0 9999 2 25544 51.6397 270.1660 0006491 95.3573 48.3541 15.49778037324710 CXO 1 25867U 99040B 22035.82769404 .00000374 00000-0 00000+0 0 9995 2 25867 49.0287 243.8729 8657556 229.6935 0.6125 0.37805427 22456 ____________________________________________________________________ These 2-Line ...Continue Reading

[list_settings.list_name] Current TLEs

February 4th 2022 PST

HST 1 20580U 90037B 22034.56086428 .00001884 00000-0 10214-3 0 9996 2 20580 28.4711 335.5845 0002641 37.2069 128.6910 15.09996056545958 ISS (ZARYA) 1 25544U 98067A 22035.24362226 .00004583 00000-0 88978-4 0 9993 2 25544 51.6434 274.9609 0006569 96.2302 39.6251 15.49754880324567 CXO 1 25867U 99040B 22035.82769404 .00000374 00000-0 00000+0 0 9995 2 25867 49.0287 243.8729 8657556 229.6935 0.6125 0.37805427 22456 ____________________________________________________________________ These 2-Line ...Continue Reading

[list_settings.list_name] Current TLEs

February 3rd 2022 PST

HST 1 20580U 90037B 22034.21988451 .00001633 00000-0 87086-4 0 9999 2 20580 28.4711 337.8418 0002630 33.7783 74.8792 15.09993326546162 ISS (ZARYA) 1 25544U 98067A 22034.41144350 .00004679 00000-0 90698-4 0 9995 2 25544 51.6420 279.0863 0006663 89.3518 80.6227 15.49747072324437 CXO 1 25867U 99040B 22035.82769404 .00000374 00000-0 00000+0 0 9995 2 25867 49.0287 243.8729 8657556 229.6935 0.6125 0.37805427 22456 ____________________________________________________________________ These 2-Line ...Continue Reading

[list_settings.list_name] Current TLEs

February 2nd 2022 PST

HST 1 20580U 90037B 22033.14641228 .00001640 00000-0 87532-4 0 9992 2 20580 28.4712 344.9481 0002584 22.4502 359.2711 15.09990065546005 ISS (ZARYA) 1 25544U 98067A 22033.44448693 .00005512 00000-0 10542-3 0 9990 2 25544 51.6447 283.8688 0006779 89.5741 82.1189 15.49736881324285 CXO 1 25867U 99040B 22035.82690723 .00000374 00000-0 00000-0 0 9993 2 25867 49.0289 243.8730 8657587 229.6935 0.5052 0.37804419 11292 ____________________________________________________________________ These 2-Line ...Continue Reading
  • This mailing list is a public mailing list - anyone may join or leave, at any time.
  • This mailing list is announce-only.

International Space Station (ISS) / Hubble Space Telescope (HST) / Chandra X-Ray Observatory Orbital Data via EMAIL

Privacy Policy:

Private list